FW6302 Weather Reports


time (UTC)temp
C
wind
direction
speed
KPH
gust
KPH
rain 1hr
cm
rain 24hr
cm
rain mn
cm
humidity
%
barometer
mb
20260502130543 2 171 3.2 4.8 0.00 0.00 0.00 84 1023.2
20260502123544 0 165 1.6 3.2 0.00 0.00 0.00 87 1023.3
20260502123048 0 239 1.6 3.2 0.00 0.00 0.00 85 1023.3
20260502122540 0 227 1.6 3.2 0.00 0.00 0.00 84 1023.3
20260502122039 1 98 0.0 0.0 0.00 0.00 0.00 82 1023.3
20260502121540 1 95 0.0 0.0 0.00 0.00 0.00 85 1023.2
20260502121039 0 95 0.0 0.0 0.00 0.00 0.00 88 1023.3
20260502120539 0 94 0.0 0.0 0.00 0.00 0.00 89 1023.2
20260502115539 -1 94 0.0 0.0 0.00 0.00 0.00 89 1023.2
20260502115038 -1 94 0.0 0.0 0.00 0.00 0.00 90 1023.2
20260502114538 -1 95 0.0 0.0 0.00 0.00 0.00 90 1023.2
20260502114038 -2 94 0.0 0.0 0.00 0.00 0.00 91 1023.2
20260502113539 -2 95 0.0 0.0 0.00 0.00 0.00 90 1023.2
20260502113037 -2 94 0.0 0.0 0.00 0.00 0.00 90 1023.2
20260502112538 -2 94 0.0 0.0 0.00 0.00 0.00 90 1023.2
20260502112036 -2 94 0.0 0.0 0.00 0.00 0.00 91 1023.3
20260502111540 -2 94 0.0 0.0 0.00 0.00 0.00 91 1023.2
20260502111038 -2 94 0.0 0.0 0.00 0.00 0.00 90 1023.2
20260502110536 -2 94 0.0 0.0 0.00 0.00 0.00 90 1023.2
20260502110036 -2 94 0.0 0.0 0.00 0.00 0.00 90 1023.2
20260502105536 -2 94 0.0 0.0 0.00 0.00 0.00 89 1023.1
20260502105034 -2 94 0.0 0.0 0.00 0.00 0.00 88 1023.1
20260502104537 -2 94 0.0 0.0 0.00 0.00 0.00 89 1023.1
20260502104033 -2 94 0.0 0.0 0.00 0.00 0.00 89 1023.2
20260502103533 -2 94 0.0 0.0 0.00 0.00 0.00 88 1023.2
20260502103035 -1 94 0.0 0.0 0.00 0.00 0.00 88 1023.2
20260502102538 -1 94 0.0 0.0 0.00 0.00 0.00 89 1023.2
20260502102032 -1 94 0.0 0.0 0.00 0.00 0.00 88 1023.3
20260502101532 -1 94 0.0 0.0 0.00 0.00 0.00 88 1023.2
20260502101031 -1 94 0.0 0.0 0.00 0.00 0.00 88 1023.3
20260502100531 -1 94 0.0 0.0 0.00 0.00 0.00 88 1023.3
20260502091527 -1 94 0.0 0.0 0.00 0.00 0.00 87 1023.1
20260502091028 -1 94 0.0 0.0 0.00 0.00 0.00 88 1023.1
20260502090526 -1 94 0.0 0.0 0.00 0.00 0.00 87 1023.2
20260502071516 0 94 0.0 0.0 0.00 0.00 0.00 84 1023.1
20260502071015 0 94 0.0 0.0 0.00 0.00 0.00 83 1023.2
20260502070515 0 94 0.0 0.0 0.00 0.00 0.00 83 1023.1
20260502070014 0 94 0.0 0.0 0.00 0.00 0.00 83 1023.2
20260502065514 0 94 0.0 0.0 0.00 0.00 0.00 82 1023.1
20260502065016 0 94 0.0 0.0 0.00 0.00 0.00 81 1023.2
20260502064511 0 94 0.0 0.0 0.00 0.00 0.00 81 1023.2
20260502064017 0 94 0.0 0.0 0.00 0.00 0.00 80 1023.2
20260502063511 0 94 0.0 0.0 0.00 0.00 0.00 80 1023.3
20260502063011 0 94 0.0 0.0 0.00 0.00 0.00 81 1023.2
20260502062512 0 94 0.0 0.0 0.00 0.00 0.00 79 1023.3
20260502062008 1 94 0.0 0.0 0.00 0.00 0.00 80 1023.2
20260502061509 1 94 0.0 0.0 0.00 0.00 0.00 79 1023.2
20260502061006 1 94 0.0 0.0 0.00 0.00 0.00 80 1023.2
20260502060506 1 94 0.0 0.0 0.00 0.00 0.00 80 1023.1
20260502060006 1 94 0.0 0.0 0.00 0.00 0.00 80 1023.0
20260502055505 1 94 0.0 0.0 0.00 0.00 0.00 79 1023.1
20260502055003 1 94 0.0 0.0 0.00 0.00 0.00 79 1023.0
20260502054502 1 79 0.0 0.0 0.00 0.00 0.00 79 1023.1
20260502054002 2 79 0.0 0.0 0.00 0.00 0.00 78 1023.0
20260502053559 2 48 0.0 0.0 0.00 0.00 0.00 78 1023.0
20260502053111 2 328 0.0 0.0 0.00 0.00 0.00 77 1023.0
20260502052559 2 328 0.0 1.6 0.00 0.00 0.00 76 1023.0
20260502052059 2 328 0.0 1.6 0.00 0.00 0.00 75 1022.9
20260502051556 2 328 0.0 1.6 0.00 0.00 0.00 74 1023.0
20260502051055 2 328 0.0 3.2 0.00 0.00 0.00 75 1022.9
20260502050554 2 328 1.6 3.2 0.00 0.00 0.00 75 1023.0
20260502050058 2 6 0.0 0.0 0.00 0.00 0.00 76 1022.9
20260502045553 2 6 0.0 0.0 0.00 0.00 0.00 75 1022.9
20260502045051 3 6 0.0 0.0 0.00 0.00 0.00 75 1022.9
20260502044552 3 5 0.0 0.0 0.00 0.00 0.00 75 1022.9
20260502044051 2 5 0.0 0.0 0.00 0.00 0.00 76 1022.9
20260502043551 2 96 0.0 0.0 0.00 0.00 0.00 77 1022.9
20260502043100 2 96 0.0 0.0 0.00 0.00 0.00 76 1022.8
20260502042551 2 96 0.0 0.0 0.00 0.00 0.00 76 1022.8
20260502042050 2 96 0.0 0.0 0.00 0.00 0.00 75 1022.8
20260502041554 3 96 0.0 0.0 0.00 0.00 0.00 76 1022.8
20260502041054 3 96 0.0 0.0 0.00 0.00 0.00 74 1022.8
20260502040549 3 96 0.0 0.0 0.00 0.00 0.00 73 1022.8
20260502040055 3 96 0.0 0.0 0.00 0.00 0.00 73 1022.7
20260502035549 3 96 0.0 0.0 0.00 0.00 0.00 71 1022.7
20260502035049 3 96 0.0 0.0 0.00 0.00 0.00 71 1022.8
20260502034549 3 96 0.0 0.0 0.00 0.00 0.00 70 1022.7
20260502034049 4 96 0.0 0.0 0.00 0.00 0.00 67 1022.8
20260502033548 4 96 0.0 0.0 0.00 0.00 0.00 66 1022.7
20260502033048 5 96 0.0 0.0 0.00 0.00 0.00 66 1022.7
20260502032547 5 96 0.0 0.0 0.00 0.00 0.00 66 1022.6
20260502032047 5 96 0.0 0.0 0.00 0.00 0.00 67 1022.6
20260502031550 5 96 0.0 0.0 0.00 0.00 0.00 65 1022.7
20260502031047 5 96 0.0 0.0 0.00 0.00 0.00 62 1022.6
20260502030548 5 96 0.0 0.0 0.00 0.00 0.00 60 1022.5
20260502030046 6 21 0.0 0.0 0.00 0.00 0.00 58 1022.5
20260502025545 6 22 0.0 0.0 0.00 0.00 0.00 57 1022.3
20260502025045 6 21 0.0 0.0 0.00 0.00 0.00 56 1022.2
20260502024556 6 21 0.0 0.0 0.00 0.00 0.00 57 1022.2
20260502024045 7 21 0.0 0.0 0.00 0.00 0.00 57 1022.2
20260502023549 7 21 0.0 0.0 0.00 0.00 0.00 55 1022.2
20260502023045 7 21 0.0 0.0 0.00 0.00 0.00 55 1022.2
20260502022547 7 21 0.0 0.0 0.00 0.00 0.00 54 1022.1
20260502022044 7 21 0.0 0.0 0.00 0.00 0.00 53 1022.2
20260502021547 8 21 0.0 0.0 0.00 0.00 0.00 51 1022.2
20260502021044 8 21 0.0 0.0 0.00 0.00 0.00 50 1022.1
20260502020544 9 20 0.0 4.8 0.00 0.00 0.00 48 1022.0
20260502020045 9 19 3.2 4.8 0.00 0.00 0.00 47 1021.8
20260502015547 9 343 3.2 8.0 0.00 0.00 0.00 46 1021.8
20260502015046 10 335 3.2 8.0 0.00 0.00 0.00 45 1021.7
20260502014542 10 6 4.8 11.3 0.00 0.00 0.00 45 1021.6
20260502014042 10 37 3.2 11.3 0.00 0.00 0.00 44 1021.6
20260502013542 10 15 6.4 11.3 0.00 0.00 0.00 43 1021.6
20260502013042 10 33 6.4 12.9 0.00 0.00 0.00 43 1021.6
20260502012542 10 17 6.4 12.9 0.00 0.00 0.00 42 1021.5
20260502012042 11 37 6.4 12.9 0.00 0.00 0.00 42 1021.5
20260502011542 11 13 8.0 14.5 0.00 0.00 0.00 41 1021.5
20260502011041 11 16 9.7 14.5 0.00 0.00 0.00 40 1021.5
20260502010545 11 28 8.0 14.5 0.00 0.00 0.00 39 1021.4
20260502010041 11 29 9.7 12.9 0.00 0.00 0.00 40 1021.4
20260502005541 11 11 8.0 20.9 0.00 0.00 0.00 40 1021.4
20260502005043 11 30 8.0 20.9 0.00 0.00 0.00 40 1021.4
20260502004540 11 5 9.7 16.1 0.00 0.00 0.00 39 1021.3
20260502004040 12 30 9.7 16.1 0.00 0.00 0.00 38 1021.3
20260502003540 12 329 8.0 17.7 0.00 0.00 0.00 39 1021.3
20260502003039 11 17 12.9 19.3 0.00 0.00 0.00 38 1021.2
20260502002539 12 338 11.3 24.1 0.00 0.00 0.00 38 1021.3
20260502002039 12 13 17.7 25.7 0.00 0.00 0.00 38 1021.1
20260502001539 12 11 16.1 25.7 0.00 0.00 0.00 38 1021.2
20260502001038 12 53 11.3 22.5 0.00 0.00 0.00 37 1021.2
20260502000538 12 24 14.5 22.5 0.00 0.00 0.00 38 1021.2
20260502000040 12 335 11.3 19.3 0.00 0.00 0.00 38 1021.2
20260501235538 12 302 11.3 19.3 0.00 0.00 0.00 39 1021.3
20260501235039 12 327 11.3 27.4 0.00 0.00 0.00 37 1021.2
20260501234539 12 34 14.5 27.4 0.00 0.00 0.00 38 1021.1
20260501234042 12 354 14.5 29.0 0.00 0.00 0.00 37 1021.1
20260501233539 12 348 19.3 29.0 0.00 0.00 0.00 37 1021.1
20260501233038 12 40 12.9 24.1 0.00 0.00 0.00 37 1021.0
20260501232540 12 319 14.5 24.1 0.00 0.00 0.00 36 1021.1
20260501232036 12 357 16.1 22.5 0.00 0.00 0.00 37 1021.1
20260501231536 12 66 6.4 20.9 0.00 0.00 0.00 39 1021.1
20260501231038 12 49 12.9 24.1 0.00 0.00 0.00 39 1021.1
20260501230536 12 48 9.7 30.6 0.00 0.00 0.00 37 1021.1
20260501230036 12 57 16.1 30.6 0.00 0.00 0.00 40 1021.1
20260501225536 12 354 19.3 29.0 0.00 0.00 0.00 37 1021.1
20260501225035 12 3 17.7 27.4 0.00 0.00 0.00 37 1021.0
20260501224534 12 11 16.1 25.7 0.00 0.00 0.00 37 1021.0
20260501224034 12 345 16.1 25.7 0.00 0.00 0.00 37 1021.0
20260501223535 12 347 16.1 29.0 0.00 0.00 0.00 38 1021.0
20260501223034 12 41 14.5 20.9 0.00 0.00 0.00 39 1021.0
20260501222535 12 32 9.7 25.7 0.00 0.00 0.00 40 1021.1
20260501222033 12 346 12.9 25.7 0.00 0.00 0.00 38 1021.1
20260501221535 12 63 11.3 25.7 0.00 0.00 0.00 40 1021.0
20260501221032 12 345 14.5 25.7 0.00 0.00 0.00 39 1021.1
20260501220532 12 24 12.9 25.7 0.00 0.00 0.00 41 1021.1
20260501220035 12 10 16.1 25.7 0.00 0.00 0.00 39 1021.1
20260501215532 12 300 12.9 27.4 0.00 0.00 0.00 38 1021.2
20260501215032 12 319 12.9 27.4 0.00 0.00 0.00 38 1021.2
20260501214533 12 354 12.9 29.0 0.00 0.00 0.00 41 1021.2
20260501214030 12 345 14.5 25.7 0.00 0.00 0.00 39 1021.2
20260501213530 11 299 14.5 27.4 0.00 0.00 0.00 41 1021.2
20260501213030 11 327 17.7 32.2 0.00 0.00 0.00 39 1021.2
20260501212529 11 332 19.3 29.0 0.00 0.00 0.00 40 1021.3
20260501212028 11 321 9.7 29.0 0.00 0.00 0.00 40 1021.3
20260501211531 11 332 19.3 29.0 0.00 0.00 0.00 44 1021.4
20260501211027 11 349 9.7 30.6 0.00 0.00 0.00 42 1021.5
20260501210527 11 354 20.9 30.6 0.00 0.00 0.00 41 1021.4
20260501210027 11 4 9.7 32.2 0.00 0.00 0.00 41 1021.5
20260501205526 11 1 22.5 32.2 0.00 0.00 0.00 42 1021.6
20260501205025 11 4 17.7 32.2 0.00 0.00 0.00 40 1021.7
20260501204533 11 15 17.7 30.6 0.00 0.00 0.00 41 1021.7
20260501204024 11 19 14.5 33.8 0.00 0.00 0.00 41 1021.9
20260501203524 11 15 17.7 24.1 0.00 0.00 0.00 41 1021.8
20260501203023 11 347 8.0 24.1 0.00 0.00 0.00 42 1021.9
20260501202525 11 325 14.5 30.6 0.00 0.00 0.00 42 1022.0
20260501202022 11 356 20.9 30.6 0.00 0.00 0.00 41 1021.9
20260501201522 11 35 8.0 25.7 0.00 0.00 0.00 42 1021.9
20260501201020 11 37 17.7 29.0 0.00 0.00 0.00 44 1021.9
20260501200520 11 339 14.5 32.2 0.00 0.00 0.00 42 1021.9
20260501200024 11 333 17.7 30.6 0.00 0.00 0.00 40 1021.9
20260501195522 10 17 17.7 33.8 0.00 0.00 0.00 42 1021.8
20260501195019 10 354 20.9 33.8 0.00 0.00 0.00 42 1021.9
20260501194519 10 11 14.5 30.6 0.00 0.00 0.00 42 1021.9
20260501194017 11 330 20.9 30.6 0.00 0.00 0.00 43 1021.9
20260501193517 11 340 12.9 24.1 0.00 0.00 0.00 41 1021.9
20260501193020 10 56 14.5 37.0 0.00 0.00 0.00 46 1021.9
20260501192516 10 21 22.5 37.0 0.00 0.00 0.00 44 1021.8
20260501192015 10 340 19.3 29.0 0.00 0.00 0.00 44 1021.9
20260501191515 10 13 14.5 33.8 0.00 0.00 0.00 44 1021.9
20260501191015 10 3 22.5 33.8 0.00 0.00 0.00 45 1021.9
20260501190519 10 20 19.3 32.2 0.00 0.00 0.00 46 1021.8
20260501190014 10 334 16.1 27.4 0.00 0.00 0.00 46 1021.9
20260501185513 10 311 19.3 32.2 0.00 0.00 0.00 44 1021.8
20260501185016 10 32 19.3 33.8 0.00 0.00 0.00 45 1021.9
20260501184519 10 325 14.5 33.8 0.00 0.00 0.00 45 1022.0
20260501184111 10 347 16.1 29.0 0.00 0.00 0.00 46 1021.9
20260501183510 10 344 12.9 30.6 0.00 0.00 0.00 44 1022.0
20260501183014 10 18 19.3 32.2 0.00 0.00 0.00 47 1022.0
20260501182509 10 57 22.5 32.2 0.00 0.00 0.00 48 1022.0
20260501182008 10 54 17.7 27.4 0.00 0.00 0.00 45 1022.0
20260501181508 9 311 17.7 32.2 0.00 0.00 0.00 45 1022.0
20260501181010 10 321 22.5 32.2 0.00 0.00 0.00 44 1022.1
20260501180507 9 13 12.9 33.8 0.00 0.00 0.00 47 1022.1
20260501180013 9 347 17.7 33.8 0.00 0.00 0.00 46 1022.2
20260501175505 9 331 17.7 32.2 0.00 0.00 0.00 48 1022.2
20260501175007 9 360 16.1 35.4 0.00 0.00 0.00 48 1022.1
20260501174515 9 305 22.5 43.5 0.00 0.00 0.00 46 1022.2
20260501174003 9 359 17.7 33.8 0.00 0.00 0.00 48 1022.2
20260501173503 8 349 17.7 33.8 0.00 0.00 0.00 47 1022.2
20260501173006 8 328 19.3 32.2 0.00 0.00 0.00 48 1022.3
20260501172503 9 337 20.9 32.2 0.00 0.00 0.00 45 1022.3
20260501172003 8 322 22.5 32.2 0.00 0.00 0.00 46 1022.3
20260501171502 9 4 19.3 37.0 0.00 0.00 0.00 48 1022.3
20260501171002 8 20 25.7 37.0 0.00 0.00 0.00 46 1022.2
20260501170600 8 30 19.3 30.6 0.00 0.00 0.00 46 1022.3
20260501165600 8 311 17.7 33.8 0.00 0.00 0.00 49 1022.3
20260501165100 8 9 24.1 33.8 0.00 0.00 0.00 48 1022.3
20260501164601 8 330 14.5 32.2 0.00 0.00 0.00 49 1022.4
20260501164058 8 3 22.5 32.2 0.00 0.00 0.00 50 1022.3
20260501163558 8 352 20.9 37.0 0.00 0.00 0.00 48 1022.2
20260501163057 8 321 22.5 37.0 0.00 0.00 0.00 47 1022.4
20260501162557 8 305 19.3 33.8 0.00 0.00 0.00 50 1022.1
20260501162057 8 26 17.7 30.6 0.00 0.00 0.00 49 1022.2
20260501161558 8 5 16.1 33.8 0.00 0.00 0.00 50 1022.3
20260501161056 8 329 22.5 40.2 0.00 0.00 0.00 48 1022.3
20260501160555 8 346 27.4 40.2 0.00 0.00 0.00 49 1022.1
20260501155554 8 16 14.5 38.6 0.00 0.00 0.00 49 1022.2
20260501155056 8 340 22.5 38.6 0.00 0.00 0.00 49 1022.2
20260501154558 8 323 19.3 37.0 0.00 0.00 0.00 51 1022.1
20260501154053 8 328 22.5 30.6 0.00 0.00 0.00 49 1022.0
20260501153552 8 346 19.3 29.0 0.00 0.00 0.00 52 1022.1
20260501153053 8 5 12.9 32.2 0.00 0.00 0.00 53 1022.2
20260501152550 7 18 19.3 33.8 0.00 0.00 0.00 52 1022.3
20260501152047 7 15 20.9 33.8 0.00 0.00 0.00 53 1022.3
20260501151546 7 32 16.1 30.6 0.00 0.00 0.00 58 1022.3
20260501151044 7 13 20.9 33.8 0.00 0.00 0.00 60 1022.2
20260501150543 7 355 25.7 33.8 0.00 0.00 0.00 60 1022.2
20260501150042 7 328 17.7 30.6 0.00 0.00 0.00 62 1022.2
20260501145543 6 349 17.7 30.6 0.00 0.00 0.00 64 1022.2
20260501145039 6 52 14.5 30.6 0.00 0.00 0.00 66 1022.2
20260501144538 6 14 19.3 30.6 0.00 0.00 0.00 66 1022.2
20260501144038 6 355 20.9 32.2 0.00 0.00 0.00 65 1022.3
20260501143537 6 27 20.9 32.2 0.00 0.00 0.00 67 1022.2
20260501143035 6 337 20.9 32.2 0.00 0.00 0.00 67 1022.1
20260501142538 5 2 16.1 32.2 0.00 0.00 0.00 70 1022.1
20260501142033 5 336 16.1 29.0 0.00 0.00 0.00 70 1022.1
20260501141532 5 352 16.1 29.0 0.00 0.00 0.00 71 1022.0
20260501141031 5 37 12.9 25.7 0.00 0.00 0.00 72 1021.9
20260501140533 5 347 17.7 25.7 0.00 0.00 0.00 70 1021.8
20260501140030 5 324 14.5 27.4 0.00 0.00 0.00 71 1021.9
20260501135532 5 342 17.7 27.4 0.00 0.00 0.00 71 1021.8